IMS-1

Last updated on Wed Apr 06 2016 09:37:56 GMT+0000 (Coordinated Universal Time)

1 32786U 08021D 16097.13049971 .00000581 00000-0 75328-4 0 9997 2 32786 97.6263 125.0133 0011113 203.8646 156.2062 14.84260174429220

Satellite not in orbit

IMS-1